User: anonymous
Location: Radomski Observatory
(40.2854°N, 79.5145°W)
Time: 22:14:52
(UTC-04:00)
Language:

Cosmos 1072 Rocket - Orbit

View from above orbital plane
View from above orbital plane
View from above satellite
View from above satellite

Ground track
Ground track

The orbit data is extracted from the following two-line orbital elements,

1 11239U 79003B   14241.05231311  .00000012  00000-0 -33177-5 0  3504
2 11239 082.9388 127.9766 0040917 012.7070 098.5925 13.75729048787176
Epoch (UTC): 29 August 2014 01:15:19
Eccentricity: 0.0040917
inclination: 82.9388°
perigee height: 949 km
apogee height: 1009 km
right ascension of ascending node: 127.9766°
argument of perigee: 12.7070°
revolutions per day: 13.75729048
mean anomaly at epoch: 98.5925°
orbit number at epoch: 78717

The dashed part of the orbit path shows where the satellite is in the earth's shadow,  

DLR